Watsonville, CA

8:09 PM PDT on October 23, 2017 (GMT -0700)
Watsonville Municipal

Weather History for KWVI - July, 2014

Change the Weather History Date:

Monday, July 21, 2014

  Actual Average Record
Temperature  
Mean Temperature 69 °F 63 °F  
Max Temperature 77 °F 73 °F 84 °F (2007)
Min Temperature 60 °F 53 °F 50 °F (2016)
Degree Days  
Heating Degree Days 0    
Month to date heating degree days 15  
Since 1 June heating degree days 108  
Since 1 July heating degree days 15  
Cooling Degree Days 4    
Month to date cooling degree days 23  
Year to date cooling degree days 80  
Since 1 June cooling degree days 36  
Growing Degree Days 20 (Base 50)    
Moisture  
Dew Point 57 °F    
Average Humidity 66    
Maximum Humidity 78    
Minimum Humidity 53    
Precipitation  
Precipitation 0.00 in - 0.20 in (1979)
Month to date precipitation 0.06  
Year to date precipitation 8.24  
Since 1 July precipitation 0.06  
Sea Level Pressure  
Sea Level Pressure 30.05 in    
Wind  
Wind Speed 7 mph (WSW)    
Max Wind Speed 16 mph    
Max Gust Speed 21 mph    
Visibility 10 miles    
Events      
T = Trace of Precipitation, MM = Missing Value Source: NWS Daily Summary

Daily Weather History Graph

Daily Weather History Graph

Search for Another Location

Airport or City:

Trip Planner

Search our weather history database for the weather conditions in past years. The results will help you decide how hot, cold, wet, or windy it might be!

Date:

Astronomy

Jul. 21, 2014 Rise Set
Actual Time 6:03 AM PDT 8:22 PM PDT
Civil Twilight 5:34 AM PDT 8:52 PM PDT
Nautical Twilight 4:58 AM PDT 9:28 PM PDT
Astronomical Twilight 4:18 AM PDT 10:08 PM PDT
Moon 1:56 AM PDT (7/21) 4:11 PM PDT (7/21)
Length of Visible Light 15h 17m
Length of Day
14h 18m
Waning Crescent, 23% of the Moon is Illuminated
Jul 21
Waning Crescent
Jul 26
New
Aug 3
First Quarter
Aug 10
Full
Aug 17
Last Quarter

Hourly Weather History & Observations

Time (PDT) Temp. Dew Point Humidity Pressure Visibility Wind Dir Wind Speed Gust Speed Precip Events Conditions
12:53 AM 66.9 °F 57.9 °F 73% 30.01 in 10.0 mi WSW 4.6 mph - N/A   Overcast
1:53 AM 66.9 °F 57.9 °F 73% 30.01 in 10.0 mi WSW 3.5 mph - N/A   Overcast
2:53 AM 66.9 °F 57.9 °F 73% 30.00 in 10.0 mi WSW 3.5 mph - N/A   Overcast
3:53 AM 66.9 °F 57.9 °F 73% 30.00 in 10.0 mi West 4.6 mph - N/A   Overcast
4:53 AM 66.9 °F 57.0 °F 70% 29.99 in 10.0 mi West 3.5 mph - N/A   Overcast
5:53 AM 66.9 °F 57.0 °F 70% 30.00 in 10.0 mi WSW 5.8 mph - N/A   Overcast
6:53 AM 66.9 °F 57.9 °F 73% 30.02 in 10.0 mi SW 3.5 mph - N/A   Overcast
7:53 AM 66.9 °F 57.9 °F 73% 30.04 in 10.0 mi Calm Calm - N/A   Overcast
8:53 AM 68.0 °F 57.9 °F 70% 30.05 in 10.0 mi Variable 4.6 mph - N/A   Overcast
9:53 AM 69.1 °F 57.0 °F 65% 30.07 in 10.0 mi WSW 6.9 mph - N/A   Overcast
10:53 AM 71.1 °F 57.0 °F 61% 30.08 in 10.0 mi West 6.9 mph - N/A   Overcast
11:53 AM 73.0 °F 57.9 °F 59% 30.08 in 10.0 mi West 6.9 mph - N/A   Overcast
12:53 PM 75.9 °F 57.9 °F 54% 30.08 in 10.0 mi SSW 11.5 mph - N/A   Scattered Clouds
1:05 PM 75.0 °F 57.9 °F 55% 30.08 in 10.0 mi SW 12.7 mph - N/A   Mostly Cloudy
1:14 PM 75.9 °F 57.9 °F 54% 30.08 in 10.0 mi WSW 12.7 mph - N/A   Scattered Clouds
1:53 PM 75.9 °F 57.9 °F 54% 30.08 in 10.0 mi WSW 13.8 mph - N/A   Clear
2:53 PM 75.0 °F 57.9 °F 55% 30.08 in 10.0 mi SSW 13.8 mph - N/A   Partly Cloudy
3:53 PM 73.9 °F 57.9 °F 57% 30.07 in 10.0 mi SW 11.5 mph - N/A   Mostly Cloudy
4:44 PM 73.9 °F 57.0 °F 55% 30.06 in 10.0 mi SW 12.7 mph - N/A   Scattered Clouds
4:53 PM 73.9 °F 57.0 °F 55% 30.06 in 10.0 mi SW 13.8 mph 20.7 mph N/A   Partly Cloudy
5:53 PM 73.0 °F 55.9 °F 55% 30.04 in 10.0 mi West 9.2 mph - N/A   Clear
6:53 PM 71.1 °F 55.9 °F 59% 30.04 in 10.0 mi WSW 10.4 mph - N/A   Clear
7:53 PM 68.0 °F 55.0 °F 63% 30.04 in 10.0 mi SW 10.4 mph - N/A   Clear
8:53 PM 64.9 °F 54.0 °F 68% 30.04 in 10.0 mi SW 3.5 mph - N/A   Clear
9:53 PM 64.0 °F 54.0 °F 70% 30.05 in 10.0 mi SSW 3.5 mph - N/A   Clear
10:53 PM 64.0 °F 55.0 °F 73% 30.05 in 10.0 mi Calm Calm - N/A   Clear
11:53 PM 63.0 °F 55.0 °F 75% 30.05 in 10.0 mi NW 4.6 mph - N/A   Clear